1578006028,2020-01-03 00:00,77.55,1005.20,1023.27,150,-2.52,-5.91,-81,1
1578006088,2020-01-03 00:01,77.12,1005.22,1023.29,150,-2.53,-5.99,-81,1
1578006148,2020-01-03 00:02,77.23,1005.24,1023.31,150,-2.53,-5.97,-82,1
1578006208,2020-01-03 00:03,77.36,1005.24,1023.31,150,-2.55,-5.97,-83,1
1578006268,2020-01-03 00:04,77.59,1005.23,1023.30,150,-2.56,-5.94,-81,1
1578006328,2020-01-03 00:05,77.74,1005.18,1023.25,150,-2.58,-5.93,-81,1
1578006388,2020-01-03 00:06,77.95,1005.22,1023.29,150,-2.59,-5.91,-82,1
1578006448,2020-01-03 00:07,77.97,1005.20,1023.27,150,-2.60,-5.91,-83,1
1578006508,2020-01-03 00:08,78.22,1005.17,1023.24,150,-2.61,-5.88,-82,1
1578006568,2020-01-03 00:09,78.02,1005.23,1023.31,150,-2.61,-5.91,-82,1
1578006628,2020-01-03 00:10,77.98,1005.20,1023.27,150,-2.63,-5.94,-83,1
1578006688,2020-01-03 00:11,78.21,1005.22,1023.29,150,-2.62,-5.89,-84,1
1578006748,2020-01-03 00:12,78.20,1005.17,1023.24,150,-2.63,-5.90,-83,1
1578006808,2020-01-03 00:13,78.28,1005.11,1023.18,150,-2.63,-5.89,-83,1
1578006868,2020-01-03 00:14,78.22,1005.15,1023.23,150,-2.63,-5.90,-83,1
1578006928,2020-01-03 00:15,78.23,1005.08,1023.15,150,-2.63,-5.90,-81,1
1578006988,2020-01-03 00:16,78.16,1005.20,1023.27,150,-2.66,-5.94,-82,1
1578007048,2020-01-03 00:17,78.19,1005.05,1023.13,150,-2.65,-5.92,-82,1
1578007108,2020-01-03 00:18,78.14,1005.05,1023.13,150,-2.65,-5.93,-83,1
1578007168,2020-01-03 00:19,78.16,1005.08,1023.15,150,-2.64,-5.92,-82,1
1578007228,2020-01-03 00:20,77.95,1005.05,1023.13,150,-2.65,-5.97,-84,1
1578007288,2020-01-03 00:21,78.16,1005.07,1023.14,150,-2.64,-5.92,-82,1
1578007348,2020-01-03 00:22,78.11,1005.05,1023.12,150,-2.64,-5.93,-82,1
1578007409,2020-01-03 00:23,78.08,1005.08,1023.15,150,-2.64,-5.93,-83,1
1578007469,2020-01-03 00:24,78.00,1005.02,1023.10,150,-2.65,-5.96,-82,1
1578007529,2020-01-03 00:25,78.29,1005.08,1023.15,150,-2.65,-5.91,-83,1
1578007589,2020-01-03 00:26,78.01,1005.07,1023.15,150,-2.66,-5.96,-82,1
1578007649,2020-01-03 00:27,78.01,1005.01,1023.08,150,-2.67,-5.97,-83,1
1578007709,2020-01-03 00:28,78.02,1005.03,1023.10,150,-2.68,-5.98,-82,1
1578007769,2020-01-03 00:29,78.02,1005.02,1023.09,150,-2.69,-5.99,-83,1
1578007829,2020-01-03 00:30,78.05,1005.00,1023.07,150,-2.69,-5.99,-83,1
1578007889,2020-01-03 00:31,78.11,1005.02,1023.09,150,-2.71,-6.00,-83,1
1578007949,2020-01-03 00:32,78.25,1005.00,1023.08,150,-2.71,-5.97,-82,1
1578008009,2020-01-03 00:33,78.25,1004.96,1023.03,150,-2.72,-5.98,-84,1
1578008069,2020-01-03 00:34,78.22,1005.02,1023.09,150,-2.73,-6.00,-82,1
1578008129,2020-01-03 00:35,78.06,1004.99,1023.07,150,-2.74,-6.03,-83,1
1578008189,2020-01-03 00:36,78.27,1005.00,1023.07,150,-2.76,-6.02,-82,1
1578008249,2020-01-03 00:37,78.02,1005.00,1023.07,150,-2.76,-6.06,-83,1
1578008309,2020-01-03 00:38,78.30,1004.99,1023.06,150,-2.77,-6.02,-82,1
1578008369,2020-01-03 00:39,78.16,1004.98,1023.05,150,-2.78,-6.06,-82,1
1578008429,2020-01-03 00:40,78.04,1004.95,1023.03,150,-2.78,-6.08,-82,1
1578008489,2020-01-03 00:41,78.14,1004.96,1023.03,150,-2.80,-6.08,-82,1
1578008549,2020-01-03 00:42,78.21,1004.95,1023.02,150,-2.81,-6.08,-82,1
1578008609,2020-01-03 00:43,78.23,1004.94,1023.01,150,-2.81,-6.07,-83,1
1578008669,2020-01-03 00:44,78.49,1004.92,1022.99,150,-2.81,-6.03,-83,1
1578008729,2020-01-03 00:45,78.53,1004.95,1023.02,150,-2.81,-6.02,-82,1
1578008789,2020-01-03 00:46,78.38,1004.97,1023.04,150,-2.82,-6.06,-81,1
1578008850,2020-01-03 00:47,78.29,1004.94,1023.01,150,-2.83,-6.08,-83,1
1578008910,2020-01-03 00:48,78.35,1004.94,1023.01,150,-2.83,-6.07,-82,1
1578008970,2020-01-03 00:49,78.23,1004.89,1022.97,150,-2.84,-6.10,-82,1
1578009030,2020-01-03 00:50,78.24,1004.94,1023.01,150,-2.84,-6.10,-82,1
1578009090,2020-01-03 00:51,78.07,1004.89,1022.97,150,-2.84,-6.13,-83,1
1578009150,2020-01-03 00:52,78.25,1004.91,1022.98,150,-2.85,-6.11,-83,1
1578009210,2020-01-03 00:53,78.35,1004.91,1022.98,150,-2.86,-6.10,-82,1
1578009270,2020-01-03 00:54,78.28,1004.90,1022.97,150,-2.87,-6.12,-83,1
1578009330,2020-01-03 00:55,78.18,1004.94,1023.01,150,-2.89,-6.16,-83,1
1578009390,2020-01-03 00:56,78.59,1004.87,1022.94,150,-2.90,-6.10,-82,1
1578009450,2020-01-03 00:57,78.32,1004.93,1023.00,150,-2.91,-6.16,-83,1
1578009510,2020-01-03 00:58,78.25,1004.93,1023.00,150,-2.93,-6.19,-81,1
1578009570,2020-01-03 00:59,78.31,1004.91,1022.99,150,-2.95,-6.20,-83,1
1578009630,2020-01-03 01:00,78.60,1004.96,1023.03,150,-2.96,-6.16,-83,1
1578009690,2020-01-03 01:01,78.71,1004.90,1022.98,150,-2.97,-6.15,-84,1
1578009750,2020-01-03 01:02,78.83,1004.86,1022.94,150,-2.98,-6.14,-84,1
1578009810,2020-01-03 01:03,79.03,1004.90,1022.97,150,-2.98,-6.11,-83,1
1578009870,2020-01-03 01:04,78.75,1004.97,1023.04,150,-2.99,-6.16,-83,1
1578009930,2020-01-03 01:05,78.71,1004.95,1023.03,150,-3.00,-6.18,-84,1
1578009990,2020-01-03 01:06,78.78,1004.90,1022.97,150,-3.01,-6.18,-83,1
1578010050,2020-01-03 01:07,78.78,1004.94,1023.01,150,-3.02,-6.19,-83,1
1578010110,2020-01-03 01:08,78.88,1004.89,1022.97,150,-3.02,-6.17,-83,1
1578010170,2020-01-03 01:09,78.64,1004.87,1022.94,150,-3.04,-6.23,-82,1
1578010230,2020-01-03 01:10,78.62,1004.92,1022.99,150,-3.05,-6.24,-85,1
1578010291,2020-01-03 01:11,79.08,1004.86,1022.94,150,-3.05,-6.17,-83,1
1578010351,2020-01-03 01:12,78.66,1004.86,1022.93,150,-3.06,-6.25,-84,1
1578010411,2020-01-03 01:13,78.76,1004.85,1022.92,150,-3.07,-6.24,-83,1
1578010471,2020-01-03 01:14,78.79,1004.84,1022.91,150,-3.08,-6.24,-84,1
1578010531,2020-01-03 01:15,78.83,1004.79,1022.87,150,-3.09,-6.25,-83,1
1578010591,2020-01-03 01:16,78.95,1004.78,1022.85,150,-3.10,-6.24,-84,1
1578010651,2020-01-03 01:17,78.85,1004.77,1022.84,150,-3.11,-6.26,-84,1
1578010711,2020-01-03 01:18,78.99,1004.76,1022.83,150,-3.12,-6.25,-83,1
1578010771,2020-01-03 01:19,78.93,1004.76,1022.84,150,-3.14,-6.28,-84,1
1578010831,2020-01-03 01:20,79.00,1004.75,1022.83,150,-3.15,-6.28,-84,1
1578010891,2020-01-03 01:21,78.93,1004.71,1022.78,150,-3.16,-6.30,-84,1
1578010951,2020-01-03 01:22,79.16,1004.75,1022.82,150,-3.17,-6.27,-85,1
1578011011,2020-01-03 01:23,78.92,1004.80,1022.87,150,-3.19,-6.33,-85,1
1578011071,2020-01-03 01:24,78.93,1004.76,1022.83,150,-3.20,-6.34,-84,1
1578011131,2020-01-03 01:25,78.79,1004.82,1022.89,150,-3.21,-6.37,-85,1
1578011191,2020-01-03 01:26,78.81,1004.81,1022.88,150,-3.22,-6.38,-84,1
1578011251,2020-01-03 01:27,78.84,1004.82,1022.89,150,-3.24,-6.39,-84,1
1578011311,2020-01-03 01:28,78.80,1004.81,1022.89,150,-3.24,-6.40,-86,1
1578011371,2020-01-03 01:29,79.05,1004.83,1022.90,150,-3.26,-6.38,-84,1
1578011431,2020-01-03 01:30,79.29,1004.80,1022.88,150,-3.27,-6.35,-84,1
1578011492,2020-01-03 01:31,79.11,1004.80,1022.87,150,-3.28,-6.39,-84,1
1578011552,2020-01-03 01:32,79.22,1004.77,1022.84,150,-3.30,-6.39,-84,1
1578011612,2020-01-03 01:33,79.52,1004.78,1022.85,150,-3.32,-6.36,-85,1
1578011672,2020-01-03 01:34,79.47,1004.77,1022.85,150,-3.33,-6.38,-84,1
1578011732,2020-01-03 01:35,79.85,1004.78,1022.85,150,-3.32,-6.30,-85,1
1578011792,2020-01-03 01:36,79.62,1004.74,1022.82,150,-3.34,-6.36,-84,1
1578011852,2020-01-03 01:37,79.56,1004.74,1022.81,150,-3.35,-6.38,-84,1
1578011912,2020-01-03 01:38,78.93,1004.77,1022.84,150,-3.36,-6.49,-84,1
1578011972,2020-01-03 01:39,79.64,1004.73,1022.81,150,-3.36,-6.38,-85,1
1578012032,2020-01-03 01:40,79.24,1004.72,1022.79,150,-3.37,-6.45,-85,1
1578012092,2020-01-03 01:41,79.37,1004.72,1022.79,150,-3.38,-6.44,-84,1
1578012152,2020-01-03 01:42,79.49,1004.71,1022.78,150,-3.38,-6.42,-84,1
1578012212,2020-01-03 01:43,79.92,1004.72,1022.80,150,-3.39,-6.36,-84,1
1578012272,2020-01-03 01:44,79.38,1004.69,1022.77,150,-3.40,-6.46,-85,1
1578012332,2020-01-03 01:45,79.24,1004.72,1022.79,150,-3.41,-6.49,-85,1
1578012392,2020-01-03 01:46,79.32,1004.71,1022.79,150,-3.42,-6.49,-86,1
1578012452,2020-01-03 01:47,79.31,1004.75,1022.82,150,-3.43,-6.50,-85,1
1578012512,2020-01-03 01:48,79.44,1004.73,1022.80,150,-3.43,-6.48,-84,1
1578012572,2020-01-03 01:49,79.24,1004.73,1022.80,150,-3.44,-6.52,-83,1
1578012632,2020-01-03 01:50,79.83,1004.73,1022.81,150,-3.44,-6.42,-86,1
1578012692,2020-01-03 01:51,79.55,1004.75,1022.82,150,-3.44,-6.47,-85,1
1578012752,2020-01-03 01:52,79.68,1004.74,1022.81,150,-3.45,-6.46,-85,1
1578012812,2020-01-03 01:53,79.36,1004.74,1022.81,150,-3.45,-6.51,-87,1
1578012872,2020-01-03 01:54,79.51,1004.73,1022.80,150,-3.46,-6.50,-85,1
1578012933,2020-01-03 01:55,79.35,1004.74,1022.81,150,-3.46,-6.52,-85,1
1578012993,2020-01-03 01:56,79.51,1004.75,1022.82,150,-3.45,-6.49,-85,1
1578013053,2020-01-03 01:57,79.36,1004.71,1022.78,150,-3.46,-6.52,-85,1
1578013113,2020-01-03 01:58,79.40,1004.70,1022.77,150,-3.45,-6.50,-85,1
1578013173,2020-01-03 01:59,79.39,1004.72,1022.80,150,-3.47,-6.53,-84,1
1578013233,2020-01-03 02:00,79.40,1004.72,1022.79,150,-3.46,-6.51,-84,1
1578013293,2020-01-03 02:01,79.45,1004.73,1022.80,150,-3.45,-6.50,-86,1
1578013353,2020-01-03 02:02,79.38,1004.67,1022.74,150,-3.47,-6.53,-85,1
1578013413,2020-01-03 02:03,79.77,1004.69,1022.76,150,-3.46,-6.45,-85,1
1578013473,2020-01-03 02:04,79.70,1004.69,1022.76,150,-3.46,-6.46,-85,1
1578013533,2020-01-03 02:05,79.52,1004.69,1022.76,150,-3.47,-6.50,-85,1
1578013593,2020-01-03 02:06,79.55,1004.69,1022.76,150,-3.47,-6.50,-85,1
1578013653,2020-01-03 02:07,79.48,1004.69,1022.77,150,-3.48,-6.52,-85,1
1578013713,2020-01-03 02:08,79.53,1004.66,1022.73,150,-3.48,-6.51,-85,1
1578013773,2020-01-03 02:09,79.58,1004.65,1022.73,150,-3.49,-6.51,-85,1
1578013833,2020-01-03 02:10,79.54,1004.65,1022.72,150,-3.49,-6.52,-85,1
1578013893,2020-01-03 02:11,79.74,1004.62,1022.69,150,-3.50,-6.50,-84,1
1578013953,2020-01-03 02:12,79.62,1004.59,1022.66,150,-3.51,-6.53,-84,1
1578014013,2020-01-03 02:13,79.60,1004.58,1022.66,150,-3.51,-6.53,-84,1
1578014073,2020-01-03 02:14,79.77,1004.58,1022.66,150,-3.51,-6.50,-85,1
1578014133,2020-01-03 02:15,79.45,1004.58,1022.65,150,-3.51,-6.55,-85,1
1578014193,2020-01-03 02:16,79.25,1004.55,1022.63,150,-3.52,-6.60,-85,1
1578014253,2020-01-03 02:17,79.52,1004.56,1022.63,150,-3.53,-6.56,-85,1
1578014313,2020-01-03 02:18,79.49,1004.52,1022.59,150,-3.54,-6.58,-85,1
1578014373,2020-01-03 02:19,79.60,1004.54,1022.61,150,-3.55,-6.57,-85,1
1578014434,2020-01-03 02:20,79.49,1004.52,1022.60,150,-3.57,-6.61,-85,1
1578014494,2020-01-03 02:21,79.51,1004.53,1022.60,150,-3.57,-6.60,-84,1
1578014554,2020-01-03 02:22,79.67,1004.53,1022.60,150,-3.59,-6.60,-84,1
1578014614,2020-01-03 02:23,79.71,1004.51,1022.58,150,-3.59,-6.59,-84,1
1578014674,2020-01-03 02:24,79.63,1004.55,1022.62,150,-3.60,-6.61,-85,1
1578014734,2020-01-03 02:25,79.47,1004.52,1022.59,150,-3.61,-6.65,-85,1
1578014794,2020-01-03 02:26,79.53,1004.52,1022.59,150,-3.62,-6.65,-85,1
1578014854,2020-01-03 02:27,79.42,1004.52,1022.60,150,-3.63,-6.68,-86,1
1578014914,2020-01-03 02:28,79.78,1004.54,1022.61,150,-3.64,-6.63,-86,1
1578014974,2020-01-03 02:29,79.80,1004.51,1022.58,150,-3.64,-6.62,-85,1
1578015034,2020-01-03 02:30,79.75,1004.49,1022.56,150,-3.65,-6.64,-84,1
1578015094,2020-01-03 02:31,79.63,1004.49,1022.56,150,-3.66,-6.67,-86,1
1578015154,2020-01-03 02:32,79.63,1004.48,1022.55,150,-3.68,-6.69,-85,1
1578015214,2020-01-03 02:33,79.58,1004.52,1022.60,150,-3.68,-6.70,-85,1
1578015274,2020-01-03 02:34,79.83,1004.50,1022.58,150,-3.68,-6.66,-85,1
1578015334,2020-01-03 02:35,79.75,1004.52,1022.60,150,-3.69,-6.68,-85,1
1578015394,2020-01-03 02:36,79.70,1004.49,1022.56,150,-3.70,-6.70,-85,1
1578015454,2020-01-03 02:37,79.83,1004.55,1022.62,150,-3.71,-6.69,-84,1
1578015514,2020-01-03 02:38,79.62,1004.55,1022.62,150,-3.70,-6.71,-85,1
1578015574,2020-01-03 02:39,79.50,1004.54,1022.61,150,-3.71,-6.74,-84,1
1578015634,2020-01-03 02:40,79.71,1004.53,1022.60,150,-3.72,-6.72,-85,1
1578015694,2020-01-03 02:41,79.69,1004.48,1022.55,150,-3.72,-6.72,-86,1
1578015754,2020-01-03 02:42,79.67,1004.42,1022.49,150,-3.73,-6.73,-85,1
1578015814,2020-01-03 02:43,79.39,1004.44,1022.51,150,-3.73,-6.78,-85,1
1578015875,2020-01-03 02:44,79.36,1004.44,1022.51,150,-3.75,-6.80,-85,1
1578015935,2020-01-03 02:45,79.88,1004.42,1022.50,150,-3.74,-6.71,-86,1
1578015995,2020-01-03 02:46,79.59,1004.42,1022.49,150,-3.75,-6.77,-85,1
1578016055,2020-01-03 02:47,79.72,1004.39,1022.46,150,-3.76,-6.75,-85,1
1578016115,2020-01-03 02:48,79.59,1004.35,1022.42,150,-3.77,-6.79,-85,1
1578016175,2020-01-03 02:49,79.64,1004.36,1022.43,150,-3.79,-6.80,-86,1
1578016235,2020-01-03 02:50,79.54,1004.28,1022.36,150,-3.79,-6.81,-85,1
1578016295,2020-01-03 02:51,79.54,1004.29,1022.36,150,-3.80,-6.82,-86,1
1578016355,2020-01-03 02:52,79.82,1004.23,1022.30,150,-3.80,-6.78,-85,1
1578016415,2020-01-03 02:53,79.45,1004.27,1022.34,150,-3.82,-6.86,-85,1
1578016475,2020-01-03 02:54,79.44,1004.25,1022.32,150,-3.82,-6.86,-86,1
1578016535,2020-01-03 02:55,79.60,1004.22,1022.29,150,-3.83,-6.84,-86,1
1578016595,2020-01-03 02:56,79.62,1004.20,1022.27,150,-3.84,-6.85,-85,1
1578016655,2020-01-03 02:57,79.30,1004.19,1022.27,150,-3.85,-6.91,-85,1
1578016715,2020-01-03 02:58,79.71,1004.20,1022.28,150,-3.85,-6.84,-85,1
1578016775,2020-01-03 02:59,79.74,1004.19,1022.27,150,-3.85,-6.84,-85,1
1578016835,2020-01-03 03:00,79.70,1004.24,1022.32,150,-3.85,-6.85,-85,1
1578016895,2020-01-03 03:01,79.51,1004.24,1022.31,150,-3.87,-6.90,-86,1
1578016955,2020-01-03 03:02,79.74,1004.21,1022.28,150,-3.87,-6.86,-85,1
1578017015,2020-01-03 03:03,79.84,1004.19,1022.26,150,-3.86,-6.83,-85,1
1578017075,2020-01-03 03:04,79.54,1004.20,1022.27,150,-3.88,-6.90,-84,1
1578017135,2020-01-03 03:05,79.48,1004.19,1022.26,150,-3.88,-6.91,-84,1
1578017195,2020-01-03 03:06,79.43,1004.18,1022.26,150,-3.89,-6.93,-85,1
1578017255,2020-01-03 03:07,79.39,1004.19,1022.26,150,-3.89,-6.94,-86,1
1578017315,2020-01-03 03:08,79.71,1004.20,1022.27,150,-3.89,-6.88,-85,1
1578017376,2020-01-03 03:09,79.68,1004.22,1022.29,150,-3.91,-6.91,-86,1
1578017436,2020-01-03 03:10,79.56,1004.26,1022.33,150,-3.91,-6.93,-85,1
1578017496,2020-01-03 03:11,79.64,1004.18,1022.25,150,-3.92,-6.92,-85,1
1578017556,2020-01-03 03:12,79.62,1004.23,1022.30,150,-3.92,-6.93,-87,1
1578017616,2020-01-03 03:13,79.57,1004.20,1022.28,150,-3.92,-6.94,-86,1
1578017676,2020-01-03 03:14,79.71,1004.22,1022.29,150,-3.92,-6.91,-86,1
1578017736,2020-01-03 03:15,79.65,1004.19,1022.27,150,-3.95,-6.95,-86,1
1578017796,2020-01-03 03:16,79.61,1004.19,1022.26,150,-3.94,-6.95,-85,1
1578017856,2020-01-03 03:17,79.66,1004.15,1022.22,150,-3.95,-6.95,-85,1
1578017916,2020-01-03 03:18,79.54,1004.17,1022.24,150,-3.95,-6.97,-85,1
1578017976,2020-01-03 03:19,79.62,1004.21,1022.28,150,-3.95,-6.96,-86,1
1578018036,2020-01-03 03:20,79.59,1004.14,1022.21,150,-3.95,-6.96,-86,1
1578018096,2020-01-03 03:21,79.67,1004.10,1022.17,150,-3.95,-6.95,-86,1
1578018156,2020-01-03 03:22,79.56,1004.09,1022.16,150,-3.96,-6.98,-84,1
1578018216,2020-01-03 03:23,79.53,1004.05,1022.12,150,-3.96,-6.98,-85,1
1578018276,2020-01-03 03:24,79.68,1004.10,1022.17,150,-3.96,-6.96,-86,1
1578018336,2020-01-03 03:25,79.51,1004.07,1022.14,150,-3.95,-6.97,-85,1
1578018396,2020-01-03 03:26,79.50,1004.08,1022.15,150,-3.95,-6.98,-86,1
1578018456,2020-01-03 03:27,79.53,1004.10,1022.18,150,-3.95,-6.97,-87,1
1578018516,2020-01-03 03:28,79.49,1004.06,1022.13,150,-3.96,-6.99,-85,1
1578018576,2020-01-03 03:29,79.50,1004.07,1022.14,150,-3.95,-6.98,-86,1
1578018636,2020-01-03 03:30,79.54,1004.12,1022.19,150,-3.96,-6.98,-86,1
1578018696,2020-01-03 03:31,79.52,1004.08,1022.15,150,-3.95,-6.97,-86,1
1578018757,2020-01-03 03:32,79.77,1004.06,1022.14,150,-3.94,-6.92,-86,1
1578018817,2020-01-03 03:33,79.49,1004.03,1022.11,150,-3.94,-6.97,-86,1
1578018877,2020-01-03 03:34,79.46,1004.02,1022.09,150,-3.94,-6.97,-85,1
1578018937,2020-01-03 03:35,79.41,1004.01,1022.08,150,-3.95,-6.99,-87,1
1578018997,2020-01-03 03:36,79.49,1003.94,1022.01,150,-3.94,-6.97,-86,1
1578019057,2020-01-03 03:37,79.48,1003.97,1022.05,150,-3.93,-6.96,-85,1
1578019117,2020-01-03 03:38,79.35,1003.93,1022.00,150,-3.93,-6.98,-86,1
1578019177,2020-01-03 03:39,79.31,1003.97,1022.04,150,-3.94,-7.00,-85,1
1578019237,2020-01-03 03:40,79.30,1003.92,1021.99,150,-3.93,-6.99,-86,1
1578019297,2020-01-03 03:41,79.36,1003.98,1022.05,150,-3.94,-6.99,-85,1
1578019357,2020-01-03 03:42,79.32,1003.98,1022.05,150,-3.94,-6.99,-85,1
1578019417,2020-01-03 03:43,79.36,1003.96,1022.03,150,-3.94,-6.99,-85,1
1578019477,2020-01-03 03:44,79.35,1003.93,1022.00,150,-3.94,-6.99,-85,1
1578019537,2020-01-03 03:45,79.40,1003.96,1022.03,150,-3.93,-6.97,-88,1
1578019597,2020-01-03 03:46,79.35,1003.99,1022.06,150,-3.93,-6.98,-86,1
1578019657,2020-01-03 03:47,79.26,1003.93,1022.00,150,-3.95,-7.01,-86,1
1578019717,2020-01-03 03:48,79.38,1003.93,1022.00,150,-3.93,-6.98,-85,1
1578019777,2020-01-03 03:49,79.29,1003.96,1022.03,150,-3.93,-6.99,-85,1
1578019837,2020-01-03 03:50,79.37,1003.94,1022.01,150,-3.93,-6.98,-85,1
1578019897,2020-01-03 03:51,79.32,1003.91,1021.99,150,-3.93,-6.99,-85,1
1578019957,2020-01-03 03:52,79.34,1003.97,1022.04,150,-3.92,-6.97,-84,1
1578020017,2020-01-03 03:53,79.39,1003.90,1021.97,150,-3.92,-6.96,-85,1
1578020077,2020-01-03 03:54,79.30,1003.91,1021.99,150,-3.92,-6.98,-86,1
1578020138,2020-01-03 03:55,79.15,1003.91,1021.99,150,-3.91,-6.99,-84,1
1578020198,2020-01-03 03:56,79.10,1003.93,1022.00,150,-3.91,-7.00,-86,1
1578020258,2020-01-03 03:57,79.15,1003.87,1021.95,150,-3.91,-6.99,-84,1
1578020318,2020-01-03 03:58,79.11,1003.84,1021.91,150,-3.91,-7.00,-85,1
1578020378,2020-01-03 03:59,78.98,1003.83,1021.91,150,-3.91,-7.02,-85,1
1578020438,2020-01-03 04:00,79.25,1003.83,1021.91,150,-3.91,-6.98,-85,1
1578020498,2020-01-03 04:01,79.16,1003.83,1021.91,150,-3.91,-6.99,-84,1
1578020558,2020-01-03 04:02,79.08,1003.84,1021.91,150,-3.91,-7.01,-84,1
1578020618,2020-01-03 04:03,79.00,1003.84,1021.91,150,-3.92,-7.03,-85,1
1578020678,2020-01-03 04:04,79.04,1003.83,1021.90,150,-3.92,-7.02,-85,1
1578020738,2020-01-03 04:05,79.36,1003.83,1021.90,150,-3.92,-6.97,-85,1
1578020798,2020-01-03 04:06,79.17,1003.78,1021.86,150,-3.93,-7.01,-84,1
1578020858,2020-01-03 04:07,79.13,1003.78,1021.85,150,-3.95,-7.04,-85,1
1578020918,2020-01-03 04:08,79.04,1003.73,1021.81,150,-3.96,-7.06,-85,1
1578020978,2020-01-03 04:09,79.05,1003.74,1021.81,150,-3.96,-7.06,-85,1
1578021038,2020-01-03 04:10,79.01,1003.73,1021.80,150,-3.97,-7.07,-85,1
1578021098,2020-01-03 04:11,79.24,1003.71,1021.78,150,-3.97,-7.04,-84,1
1578021158,2020-01-03 04:12,79.13,1003.68,1021.75,150,-3.98,-7.07,-85,1
1578021218,2020-01-03 04:13,79.01,1003.67,1021.74,150,-3.99,-7.09,-84,1
1578021278,2020-01-03 04:14,79.03,1003.69,1021.76,150,-3.98,-7.08,-86,1
1578021338,2020-01-03 04:15,79.07,1003.67,1021.74,150,-3.98,-7.07,-84,1
1578021398,2020-01-03 04:16,78.97,1003.70,1021.77,150,-3.99,-7.10,-85,1
1578021458,2020-01-03 04:17,79.05,1003.69,1021.76,150,-3.99,-7.09,-84,1
1578021518,2020-01-03 04:18,78.97,1003.68,1021.75,150,-4.00,-7.11,-84,1
1578021578,2020-01-03 04:19,79.05,1003.63,1021.70,150,-3.99,-7.09,-84,1
1578021639,2020-01-03 04:20,79.13,1003.63,1021.70,150,-4.00,-7.08,-85,1
1578021699,2020-01-03 04:21,79.17,1003.62,1021.69,150,-4.00,-7.08,-85,1
1578021759,2020-01-03 04:22,79.19,1003.59,1021.67,150,-4.00,-7.08,-84,1
1578021819,2020-01-03 04:23,79.05,1003.55,1021.63,150,-4.01,-7.11,-85,1
1578021879,2020-01-03 04:24,78.99,1003.54,1021.61,150,-4.02,-7.13,-85,1
1578021939,2020-01-03 04:25,79.13,1003.55,1021.62,150,-4.01,-7.09,-85,1
1578021999,2020-01-03 04:26,79.01,1003.53,1021.60,150,-4.03,-7.13,-85,1
1578022059,2020-01-03 04:27,78.83,1003.53,1021.60,150,-4.03,-7.16,-84,1
1578022119,2020-01-03 04:28,79.01,1003.55,1021.62,150,-4.04,-7.14,-85,1
1578022179,2020-01-03 04:29,78.99,1003.54,1021.62,150,-4.04,-7.15,-85,1
1578022239,2020-01-03 04:30,79.04,1003.54,1021.61,150,-4.05,-7.15,-85,1
1578022299,2020-01-03 04:31,79.10,1003.53,1021.61,150,-4.06,-7.15,-85,1
1578022359,2020-01-03 04:32,79.06,1003.54,1021.61,150,-4.06,-7.15,-85,1
1578022419,2020-01-03 04:33,79.02,1003.50,1021.57,150,-4.07,-7.17,-85,1
1578022479,2020-01-03 04:34,78.97,1003.49,1021.56,150,-4.07,-7.18,-84,1
1578022539,2020-01-03 04:35,79.02,1003.48,1021.55,150,-4.08,-7.18,-85,1
1578022599,2020-01-03 04:36,78.85,1003.45,1021.52,150,-4.09,-7.22,-85,1
1578022659,2020-01-03 04:37,78.83,1003.50,1021.57,150,-4.09,-7.22,-85,1
1578022719,2020-01-03 04:38,78.77,1003.50,1021.57,150,-4.10,-7.24,-85,1
1578022779,2020-01-03 04:39,78.91,1003.45,1021.52,150,-4.11,-7.23,-84,1
1578022839,2020-01-03 04:40,78.91,1003.45,1021.52,150,-4.11,-7.23,-84,1
1578022899,2020-01-03 04:41,78.89,1003.41,1021.48,150,-4.11,-7.23,-85,1
1578022959,2020-01-03 04:42,78.80,1003.38,1021.45,150,-4.11,-7.25,-85,1
1578023020,2020-01-03 04:43,78.96,1003.34,1021.42,150,-4.09,-7.20,-85,1
1578023080,2020-01-03 04:44,79.23,1003.31,1021.39,150,-4.07,-7.14,-85,1
1578023140,2020-01-03 04:45,78.89,1003.27,1021.34,150,-4.08,-7.20,-84,1
1578023200,2020-01-03 04:46,78.80,1003.24,1021.31,150,-4.08,-7.22,-84,1
1578023260,2020-01-03 04:47,78.64,1003.27,1021.34,150,-4.08,-7.24,-84,1
1578023320,2020-01-03 04:48,78.55,1003.22,1021.29,150,-4.07,-7.25,-84,1
1578023380,2020-01-03 04:49,78.67,1003.23,1021.30,150,-4.07,-7.23,-84,1
1578023440,2020-01-03 04:50,78.38,1003.21,1021.29,150,-4.07,-7.28,-84,1
1578023500,2020-01-03 04:51,78.48,1003.19,1021.26,150,-4.07,-7.26,-84,1
1578023560,2020-01-03 04:52,78.50,1003.20,1021.28,150,-4.07,-7.26,-84,1
1578023620,2020-01-03 04:53,78.54,1003.21,1021.29,150,-4.07,-7.25,-85,1
1578023680,2020-01-03 04:54,78.59,1003.22,1021.29,150,-4.07,-7.24,-85,1
1578023740,2020-01-03 04:55,78.51,1003.25,1021.32,150,-4.07,-7.26,-84,1
1578023800,2020-01-03 04:56,78.46,1003.28,1021.35,150,-4.07,-7.26,-84,1
1578023860,2020-01-03 04:57,78.45,1003.25,1021.32,150,-4.26,-7.45,-84,1
1578023920,2020-01-03 04:58,78.16,1003.21,1021.28,150,-4.07,-7.31,-84,1
1578023980,2020-01-03 04:59,78.18,1003.22,1021.30,150,-4.07,-7.31,-84,1
1578024040,2020-01-03 05:00,78.21,1003.19,1021.26,150,-4.07,-7.31,-84,1
1578024100,2020-01-03 05:01,78.20,1003.18,1021.25,150,-4.07,-7.31,-84,1
1578024160,2020-01-03 05:02,78.30,1003.17,1021.24,150,-4.07,-7.29,-84,1
1578024220,2020-01-03 05:03,78.25,1003.14,1021.21,150,-4.08,-7.31,-84,1
1578024280,2020-01-03 05:04,78.17,1003.18,1021.25,150,-4.08,-7.32,-84,1
1578024340,2020-01-03 05:05,78.19,1003.17,1021.25,150,-4.08,-7.32,-84,1
1578024400,2020-01-03 05:06,78.23,1003.19,1021.26,150,-4.08,-7.31,-84,1
1578024460,2020-01-03 05:07,77.98,1003.18,1021.25,150,-4.08,-7.35,-84,1
1578024520,2020-01-03 05:08,78.07,1003.18,1021.25,150,-4.08,-7.34,-85,1
1578024581,2020-01-03 05:09,78.09,1003.15,1021.22,150,-4.08,-7.33,-84,1
1578024641,2020-01-03 05:10,77.80,1003.13,1021.20,150,-4.08,-7.38,-84,1
1578024701,2020-01-03 05:11,78.18,1003.12,1021.19,150,-4.08,-7.32,-84,1
1578024761,2020-01-03 05:12,78.00,1003.12,1021.19,150,-4.08,-7.35,-84,1
1578024821,2020-01-03 05:13,78.48,1003.10,1021.17,150,-4.06,-7.25,-84,1
1578024881,2020-01-03 05:14,78.01,1003.06,1021.13,150,-4.06,-7.33,-84,1
1578024941,2020-01-03 05:15,77.97,1003.04,1021.12,150,-4.07,-7.34,-84,1
1578025001,2020-01-03 05:16,77.68,1003.04,1021.11,150,-4.08,-7.40,-84,1
1578025061,2020-01-03 05:17,77.62,1003.02,1021.09,150,-4.09,-7.42,-84,1
1578025121,2020-01-03 05:18,77.73,1002.96,1021.04,150,-4.10,-7.41,-84,1
1578025181,2020-01-03 05:19,77.74,1002.99,1021.06,150,-4.09,-7.40,-84,1
1578025241,2020-01-03 05:20,78.00,1002.99,1021.06,150,-4.09,-7.36,-84,1
1578025301,2020-01-03 05:21,77.65,1002.92,1021.00,150,-4.09,-7.42,-84,1
1578025361,2020-01-03 05:22,77.56,1002.92,1020.99,150,-4.09,-7.43,-84,1
1578025421,2020-01-03 05:23,77.68,1002.91,1020.98,150,-4.08,-7.40,-84,1
1578025481,2020-01-03 05:24,77.75,1002.91,1020.99,150,-4.08,-7.39,-85,1
1578025541,2020-01-03 05:25,77.70,1002.94,1021.01,150,-4.08,-7.40,-83,1
1578025601,2020-01-03 05:26,77.70,1002.87,1020.95,150,-4.08,-7.40,-84,1
1578025661,2020-01-03 05:27,77.75,1002.90,1020.97,150,-4.09,-7.40,-84,1
1578025721,2020-01-03 05:28,77.86,1002.89,1020.97,150,-4.10,-7.39,-84,1
1578025781,2020-01-03 05:29,78.02,1002.87,1020.94,150,-4.10,-7.37,-84,1
1578025841,2020-01-03 05:30,77.84,1002.92,1020.99,150,-4.12,-7.42,-84,1
1578025901,2020-01-03 05:31,78.08,1002.94,1021.02,150,-4.13,-7.38,-84,1
1578025962,2020-01-03 05:32,78.15,1002.91,1020.98,150,-4.14,-7.38,-84,1